| time (UTC) | temp C | wind direction | speed KPH | gust KPH | rain 1hr cm | rain 24hr cm | rain mn cm | humidity % | barometer mb |
| 20260506163505 | 7 | 309 | 4.8 | 17.7 | 0.00 | 0.00 | 0.00 | 40 | 966.3 |
| 20260506163005 | 7 | 205 | 3.2 | 12.9 | 0.00 | 0.00 | 0.00 | 42 | 966.3 |
| 20260506162504 | 7 | 203 | 3.2 | 9.7 | 0.00 | 0.00 | 0.00 | 41 | 966.3 |
| 20260506162004 | 7 | 203 | 3.2 | 9.7 | 0.00 | 0.00 | 0.00 | 41 | 966.3 |
| 20260506161504 | 7 | 70 | 3.2 | 9.7 | 0.00 | 0.00 | 0.00 | 39 | 966.3 |
| 20260506161004 | 7 | 130 | 1.6 | 8.0 | 0.00 | 0.00 | 0.00 | 41 | 966.3 |
| 20260506160504 | 7 | 337 | 1.6 | 6.4 | 0.00 | 0.00 | 0.00 | 43 | 966.3 |
| 20260506160004 | 7 | 63 | 1.6 | 6.4 | 0.00 | 0.00 | 0.00 | 42 | 966.2 |
| 20260506155504 | 7 | 108 | 1.6 | 6.4 | 0.00 | 0.00 | 0.00 | 44 | 966.2 |
| 20260506155004 | 7 | 139 | 3.2 | 8.0 | 0.00 | 0.00 | 0.00 | 40 | 966.2 |
| 20260506154434 | 7 | 147 | 3.2 | 8.0 | 0.00 | 0.00 | 0.00 | 42 | 966.1 |
| 20260506153934 | 7 | 2 | 3.2 | 8.0 | 0.00 | 0.00 | 0.00 | 42 | 966.2 |
| 20260506153434 | 7 | 0 | 3.2 | 11.3 | 0.00 | 0.00 | 0.00 | 43 | 966.2 |
| 20260506152934 | 7 | 187 | 3.2 | 11.3 | 0.00 | 0.00 | 0.00 | 41 | 966.1 |
| 20260506152434 | 7 | 168 | 4.8 | 12.9 | 0.00 | 0.00 | 0.00 | 42 | 966.2 |
| 20260506151934 | 6 | 233 | 4.8 | 12.9 | 0.00 | 0.00 | 0.00 | 43 | 966.2 |
| 20260506151404 | 6 | 199 | 4.8 | 14.5 | 0.00 | 0.00 | 0.00 | 42 | 966.2 |
| 20260506150904 | 6 | 146 | 4.8 | 17.7 | 0.00 | 0.00 | 0.00 | 43 | 966.1 |
| 20260506150334 | 6 | 216 | 4.8 | 17.7 | 0.00 | 0.00 | 0.00 | 41 | 966.1 |
| 20260506145834 | 7 | 120 | 6.4 | 20.9 | 0.00 | 0.00 | 0.00 | 42 | 966.3 |
| 20260506145306 | 6 | 186 | 8.0 | 20.9 | 0.00 | 0.00 | 0.00 | 42 | 966.3 |
| 20260506144734 | 7 | 51 | 6.4 | 20.9 | 0.00 | 0.00 | 0.00 | 42 | 966.2 |
| 20260506144234 | 7 | 166 | 4.8 | 19.3 | 0.00 | 0.00 | 0.00 | 37 | 966.4 |
| 20260506143734 | 8 | 120 | 3.2 | 14.5 | 0.00 | 0.00 | 0.00 | 37 | 966.3 |
| 20260506143234 | 7 | 203 | 3.2 | 14.5 | 0.00 | 0.00 | 0.00 | 39 | 966.3 |
| 20260506142704 | 7 | 64 | 3.2 | 17.7 | 0.00 | 0.00 | 0.00 | 40 | 966.4 |
| 20260506142204 | 7 | 30 | 4.8 | 19.3 | 0.00 | 0.00 | 0.00 | 39 | 966.4 |
| 20260506141704 | 7 | 77 | 6.4 | 27.4 | 0.00 | 0.00 | 0.00 | 40 | 966.3 |
| 20260506141204 | 7 | 95 | 6.4 | 27.4 | 0.00 | 0.00 | 0.00 | 39 | 966.5 |
| 20260506140704 | 7 | 109 | 6.4 | 27.4 | 0.00 | 0.00 | 0.00 | 39 | 966.2 |
| 20260506140204 | 7 | 95 | 4.8 | 19.3 | 0.00 | 0.00 | 0.00 | 39 | 966.3 |
| 20260506135704 | 8 | 48 | 4.8 | 14.5 | 0.00 | 0.00 | 0.00 | 40 | 966.3 |
| 20260506135204 | 8 | 44 | 4.8 | 11.3 | 0.00 | 0.00 | 0.00 | 41 | 966.2 |
| 20260506134703 | 8 | 78 | 3.2 | 14.5 | 0.00 | 0.00 | 0.00 | 39 | 966.3 |
| 20260506134203 | 8 | 97 | 4.8 | 14.5 | 0.00 | 0.00 | 0.00 | 35 | 966.2 |
| 20260506133703 | 10 | 148 | 4.8 | 16.1 | 0.00 | 0.00 | 0.00 | 33 | 966.2 |
| 20260506133203 | 11 | 83 | 4.8 | 16.1 | 0.00 | 0.00 | 0.00 | 30 | 966.3 |
| 20260506132703 | 11 | 199 | 4.8 | 17.7 | 0.00 | 0.00 | 0.00 | 34 | 966.3 |
| 20260506132203 | 12 | 215 | 4.8 | 17.7 | 0.00 | 0.00 | 0.00 | 35 | 966.3 |
| 20260506131703 | 11 | 340 | 4.8 | 16.1 | 0.00 | 0.00 | 0.00 | 32 | 966.2 |
| 20260506131203 | 11 | 52 | 4.8 | 16.1 | 0.00 | 0.00 | 0.00 | 31 | 966.2 |
| 20260506130703 | 11 | 130 | 4.8 | 14.5 | 0.00 | 0.00 | 0.00 | 33 | 966.3 |
| 20260506130203 | 11 | 192 | 4.8 | 14.5 | 0.00 | 0.00 | 0.00 | 35 | 966.4 |
| 20260506125633 | 11 | 148 | 4.8 | 12.9 | 0.00 | 0.00 | 0.00 | 35 | 966.4 |
| 20260506125133 | 11 | 132 | 4.8 | 16.1 | 0.00 | 0.00 | 0.00 | 33 | 966.4 |
| 20260506124633 | 11 | 154 | 6.4 | 16.1 | 0.00 | 0.00 | 0.00 | 35 | 966.3 |
| 20260506124133 | 11 | 149 | 4.8 | 16.1 | 0.00 | 0.00 | 0.00 | 35 | 966.4 |
| 20260506123633 | 11 | 127 | 4.8 | 16.1 | 0.00 | 0.00 | 0.00 | 34 | 966.4 |
| 20260506123133 | 11 | 174 | 4.8 | 20.9 | 0.00 | 0.00 | 0.00 | 34 | 966.4 |
| 20260506122633 | 10 | 25 | 6.4 | 24.1 | 0.00 | 0.00 | 0.00 | 33 | 966.4 |
| 20260506122133 | 10 | 120 | 6.4 | 24.1 | 0.00 | 0.00 | 0.00 | 31 | 966.3 |
| 20260506121633 | 10 | 22 | 4.8 | 25.7 | 0.00 | 0.00 | 0.00 | 34 | 966.4 |
| 20260506121133 | 11 | 10 | 4.8 | 27.4 | 0.00 | 0.00 | 0.00 | 36 | 966.4 |
| 20260506120603 | 10 | 42 | 4.8 | 27.4 | 0.00 | 0.00 | 0.00 | 33 | 966.5 |
| 20260506120033 | 10 | 352 | 6.4 | 27.4 | 0.00 | 0.00 | 0.00 | 34 | 966.4 |
| 20260506115533 | 10 | 117 | 6.4 | 19.3 | 0.00 | 0.00 | 0.00 | 38 | 966.5 |
| 20260506115033 | 10 | 184 | 6.4 | 19.3 | 0.00 | 0.00 | 0.00 | 37 | 966.5 |
| 20260506114533 | 9 | 134 | 4.8 | 19.3 | 0.00 | 0.00 | 0.00 | 34 | 966.5 |
| 20260506114033 | 10 | 280 | 4.8 | 19.3 | 0.00 | 0.00 | 0.00 | 36 | 966.5 |
| 20260506113533 | 10 | 52 | 4.8 | 16.1 | 0.00 | 0.00 | 0.00 | 37 | 966.5 |
| 20260506113033 | 10 | 16 | 6.4 | 22.5 | 0.00 | 0.00 | 0.00 | 36 | 966.5 |
| 20260506112533 | 10 | 60 | 4.8 | 20.9 | 0.00 | 0.00 | 0.00 | 32 | 966.4 |
| 20260506112033 | 10 | 127 | 4.8 | 17.7 | 0.00 | 0.00 | 0.00 | 35 | 966.5 |
| 20260506111533 | 10 | 103 | 4.8 | 17.7 | 0.00 | 0.00 | 0.00 | 37 | 966.4 |
| 20260506111003 | 10 | 105 | 4.8 | 19.3 | 0.00 | 0.00 | 0.00 | 38 | 966.5 |
| 20260506110503 | 8 | 81 | 6.4 | 22.5 | 0.00 | 0.00 | 0.00 | 43 | 966.4 |
| 20260506110003 | 8 | 118 | 8.0 | 27.4 | 0.00 | 0.00 | 0.00 | 38 | 966.4 |
| 20260506105432 | 8 | 16 | 8.0 | 27.4 | 0.00 | 0.00 | 0.00 | 39 | 966.5 |
| 20260506104932 | 8 | 145 | 6.4 | 24.1 | 0.00 | 0.00 | 0.00 | 37 | 966.3 |
| 20260506104433 | 10 | 201 | 4.8 | 24.1 | 0.00 | 0.00 | 0.00 | 45 | 966.5 |
| 20260506103902 | 9 | 345 | 4.8 | 24.1 | 0.00 | 0.00 | 0.00 | 42 | 966.5 |
| 20260506103332 | 9 | 66 | 6.4 | 24.1 | 0.00 | 0.00 | 0.00 | 39 | 966.5 |
| 20260506102832 | 8 | 73 | 8.0 | 25.7 | 0.00 | 0.00 | 0.00 | 43 | 966.5 |
| 20260506102332 | 8 | 77 | 8.0 | 25.7 | 0.00 | 0.00 | 0.00 | 43 | 966.5 |
| 20260506101832 | 7 | 128 | 8.0 | 24.1 | 0.00 | 0.00 | 0.00 | 41 | 966.4 |
| 20260506101332 | 8 | 140 | 6.4 | 22.5 | 0.00 | 0.00 | 0.00 | 40 | 966.4 |
| 20260506100832 | 9 | 208 | 4.8 | 19.3 | 0.00 | 0.00 | 0.00 | 42 | 966.5 |
| 20260506100332 | 9 | 77 | 6.4 | 19.3 | 0.00 | 0.00 | 0.00 | 43 | 966.5 |
| 20260506095832 | 8 | 243 | 6.4 | 19.3 | 0.00 | 0.00 | 0.00 | 45 | 966.5 |
| 20260506095332 | 8 | 78 | 4.8 | 19.3 | 0.00 | 0.00 | 0.00 | 43 | 966.5 |
| 20260506094832 | 9 | 113 | 4.8 | 20.9 | 0.00 | 0.00 | 0.00 | 44 | 966.6 |
| 20260506094332 | 9 | 139 | 6.4 | 20.9 | 0.00 | 0.00 | 0.00 | 47 | 966.4 |
| 20260506093802 | 8 | 109 | 6.4 | 29.0 | 0.00 | 0.00 | 0.00 | 45 | 966.4 |
| 20260506093302 | 8 | 57 | 6.4 | 29.0 | 0.00 | 0.00 | 0.00 | 45 | 966.4 |
| 20260506092802 | 8 | 126 | 6.4 | 29.0 | 0.00 | 0.00 | 0.00 | 45 | 966.4 |
| 20260506092305 | 8 | 325 | 4.8 | 16.1 | 0.00 | 0.00 | 0.00 | 44 | 966.5 |
| 20260506091802 | 8 | 50 | 4.8 | 24.1 | 0.00 | 0.00 | 0.00 | 45 | 966.5 |
| 20260506091302 | 8 | 34 | 6.4 | 24.1 | 0.00 | 0.00 | 0.00 | 46 | 966.5 |
| 20260506090802 | 7 | 358 | 6.4 | 20.9 | 0.00 | 0.00 | 0.00 | 47 | 966.5 |
| 20260506090232 | 7 | 99 | 6.4 | 17.7 | 0.00 | 0.00 | 0.00 | 47 | 966.5 |
| 20260506085732 | 7 | 97 | 6.4 | 17.7 | 0.00 | 0.00 | 0.00 | 47 | 966.4 |
| 20260506085232 | 8 | 358 | 6.4 | 24.1 | 0.00 | 0.00 | 0.00 | 48 | 966.5 |
| 20260506084732 | 7 | 93 | 6.4 | 24.1 | 0.00 | 0.00 | 0.00 | 48 | 966.5 |
| 20260506084232 | 7 | 76 | 8.0 | 29.0 | 0.00 | 0.00 | 0.00 | 49 | 966.5 |
| 20260506083702 | 7 | 112 | 6.4 | 29.0 | 0.00 | 0.00 | 0.00 | 48 | 966.4 |
| 20260506083202 | 7 | 101 | 6.4 | 29.0 | 0.00 | 0.00 | 0.00 | 47 | 966.4 |
| 20260506082702 | 7 | 109 | 6.4 | 25.7 | 0.00 | 0.00 | 0.00 | 47 | 966.6 |
| 20260506082202 | 7 | 20 | 9.7 | 32.2 | 0.00 | 0.00 | 0.00 | 50 | 966.4 |
| 20260506081702 | 6 | 112 | 8.0 | 32.2 | 0.00 | 0.00 | 0.00 | 54 | 966.5 |
| 20260506081202 | 5 | 184 | 8.0 | 24.1 | 0.00 | 0.00 | 0.00 | 50 | 966.4 |
| 20260506080702 | 6 | 41 | 8.0 | 24.1 | 0.00 | 0.00 | 0.00 | 52 | 966.5 |
| 20260506080202 | 6 | 65 | 8.0 | 24.1 | 0.00 | 0.00 | 0.00 | 49 | 966.3 |
| 20260506073201 | 5 | 98 | 8.0 | 24.1 | 0.00 | 0.00 | 0.00 | 53 | 966.4 |
| 20260506072701 | 6 | 111 | 8.0 | 20.9 | 0.00 | 0.00 | 0.00 | 56 | 966.2 |
| 20260506072201 | 5 | 79 | 8.0 | 25.7 | 0.00 | 0.00 | 0.00 | 57 | 966.2 |
| 20260506071701 | 5 | 104 | 8.0 | 25.7 | 0.00 | 0.00 | 0.00 | 56 | 966.2 |
| 20260506071201 | 5 | 344 | 6.4 | 22.5 | 0.00 | 0.00 | 0.00 | 57 | 966.1 |
| 20260506070701 | 5 | 73 | 8.0 | 27.4 | 0.00 | 0.00 | 0.00 | 55 | 966.0 |
| 20260506070201 | 6 | 145 | 8.0 | 27.4 | 0.00 | 0.00 | 0.00 | 55 | 966.0 |
| 20260506062101 | 5 | 43 | 9.7 | 27.4 | 0.00 | 0.00 | 0.00 | 62 | 966.0 |
| 20260506061531 | 3 | 179 | 9.7 | 27.4 | 0.00 | 0.00 | 0.00 | 62 | 965.6 |
| 20260506061001 | 4 | 123 | 8.0 | 30.6 | 0.00 | 0.00 | 0.00 | 60 | 966.0 |
| 20260506060431 | 4 | 0 | 8.0 | 30.6 | 0.00 | 0.00 | 0.00 | 60 | 966.0 |
| 20260506051301 | 3 | 113 | 8.0 | 25.7 | 0.00 | 0.00 | 0.00 | 62 | 965.4 |
| 20260506050801 | 3 | 107 | 8.0 | 30.6 | 0.00 | 0.00 | 0.00 | 63 | 965.3 |
| 20260506050301 | 3 | 120 | 9.7 | 30.6 | 0.00 | 0.00 | 0.00 | 65 | 965.3 |
| 20260506044731 | 2 | 166 | 8.0 | 27.4 | 0.00 | 0.00 | 0.00 | 66 | 965.2 |
| 20260506044231 | 2 | 85 | 8.0 | 27.4 | 0.00 | 0.00 | 0.00 | 67 | 965.4 |
| 20260506043731 | 2 | 122 | 8.0 | 27.4 | 0.00 | 0.00 | 0.00 | 67 | 965.2 |
| 20260506043231 | 2 | 96 | 8.0 | 24.1 | 0.00 | 0.00 | 0.00 | 68 | 965.2 |
| 20260506042701 | 1 | 131 | 8.0 | 29.0 | 0.00 | 0.00 | 0.00 | 70 | 965.2 |
| 20260506042200 | 0 | 277 | 8.0 | 29.0 | 0.00 | 0.00 | 0.00 | 74 | 965.2 |
| 20260506041700 | 0 | 124 | 8.0 | 27.4 | 0.00 | 0.00 | 0.00 | 71 | 965.0 |
| 20260506041200 | 2 | 63 | 8.0 | 33.8 | 0.00 | 0.00 | 0.00 | 67 | 965.0 |
| 20260506040700 | 1 | 105 | 6.4 | 33.8 | 0.00 | 0.00 | 0.00 | 68 | 965.0 |
| 20260506040130 | 1 | 3 | 6.4 | 33.8 | 0.00 | 0.00 | 0.00 | 68 | 965.0 |
| 20260506035630 | 1 | 11 | 6.4 | 27.4 | 0.00 | 0.00 | 0.00 | 71 | 965.0 |
| 20260506035100 | 1 | 93 | 8.0 | 27.4 | 0.00 | 0.00 | 0.00 | 72 | 965.0 |
| 20260506034600 | 0 | 88 | 6.4 | 27.4 | 0.00 | 0.00 | 0.00 | 74 | 965.0 |
| 20260506034030 | 0 | 73 | 6.4 | 19.3 | 0.00 | 0.00 | 0.00 | 75 | 965.0 |
| 20260506033530 | 0 | 353 | 6.4 | 19.3 | 0.00 | 0.00 | 0.00 | 80 | 964.6 |
| 20260506033000 | 0 | 64 | 6.4 | 20.9 | 0.00 | 0.00 | 0.00 | 80 | 965.0 |
| 20260506032430 | 0 | 175 | 6.4 | 20.9 | 0.00 | 0.00 | 0.00 | 81 | 965.0 |
| 20260506031930 | 0 | 154 | 8.0 | 20.9 | 0.00 | 0.00 | 0.00 | 81 | 965.0 |
| 20260506031430 | 0 | 203 | 8.0 | 25.7 | 0.00 | 0.00 | 0.00 | 81 | 965.0 |
| 20260506030930 | 0 | 112 | 8.0 | 25.7 | 0.00 | 0.00 | 0.00 | 81 | 964.6 |
| 20260506030430 | 0 | 113 | 8.0 | 24.1 | 0.00 | 0.00 | 0.00 | 82 | 964.6 |
| 20260506025930 | 0 | 138 | 8.0 | 25.7 | 0.00 | 0.00 | 0.00 | 81 | 964.6 |
| 20260506025400 | 0 | 146 | 8.0 | 25.7 | 0.00 | 0.00 | 0.00 | 81 | 964.6 |
| 20260506024900 | 0 | 115 | 8.0 | 25.7 | 0.00 | 0.00 | 0.00 | 81 | 964.6 |
| 20260506024400 | 0 | 67 | 8.0 | 25.7 | 0.00 | 0.00 | 0.00 | 82 | 964.6 |
| 20260506023900 | 0 | 41 | 8.0 | 27.4 | 0.00 | 0.00 | 0.00 | 82 | 964.6 |
| 20260506023400 | 0 | 36 | 8.0 | 27.4 | 0.00 | 0.00 | 0.00 | 82 | 964.5 |
| 20260506022900 | 0 | 103 | 8.0 | 24.1 | 0.00 | 0.00 | 0.00 | 81 | 964.6 |
| 20260506022400 | 0 | 96 | 6.4 | 24.1 | 0.00 | 0.00 | 0.00 | 81 | 965.0 |
| 20260506021900 | 0 | 339 | 6.4 | 24.1 | 0.00 | 0.00 | 0.00 | 80 | 964.6 |
| 20260506021400 | 0 | 117 | 6.4 | 20.9 | 0.00 | 0.00 | 0.00 | 81 | 964.6 |
| 20260506020830 | 0 | 7 | 6.4 | 20.9 | 0.00 | 0.00 | 0.00 | 81 | 964.5 |
| 20260506020330 | 0 | 114 | 6.4 | 24.1 | 0.00 | 0.00 | 0.00 | 81 | 964.5 |
| 20260506015800 | 0 | 92 | 6.4 | 24.1 | 0.00 | 0.00 | 0.00 | 81 | 964.4 |
| 20260506015300 | 0 | 28 | 6.4 | 24.1 | 0.00 | 0.00 | 0.00 | 81 | 965.0 |
| 20260506014730 | 0 | 56 | 6.4 | 19.3 | 0.00 | 0.00 | 0.00 | 82 | 964.5 |
| 20260506014230 | 0 | 118 | 4.8 | 17.7 | 0.00 | 0.00 | 0.00 | 82 | 964.5 |
| 20260506013730 | 0 | 14 | 4.8 | 17.7 | 0.00 | 0.00 | 0.00 | 83 | 964.4 |
| 20260506013230 | 0 | 78 | 4.8 | 16.1 | 0.00 | 0.00 | 0.00 | 83 | 964.4 |
| 20260506012700 | 0 | 39 | 4.8 | 16.1 | 0.00 | 0.00 | 0.00 | 83 | 964.4 |
| 20260506012200 | 0 | 70 | 4.8 | 17.7 | 0.00 | 0.00 | 0.00 | 83 | 964.3 |
| 20260506011700 | -1 | 124 | 4.8 | 25.7 | 0.00 | 0.00 | 0.00 | 84 | 964.2 |
| 20260506011200 | -1 | 62 | 4.8 | 25.7 | 0.00 | 0.00 | 0.00 | 84 | 964.2 |
| 20260506010700 | -1 | 104 | 4.8 | 25.7 | 0.00 | 0.00 | 0.00 | 83 | 964.2 |
| 20260506010130 | -1 | 128 | 4.8 | 19.3 | 0.00 | 0.00 | 0.00 | 83 | 964.1 |
| 20260506005630 | -1 | 114 | 4.8 | 19.3 | 0.00 | 0.00 | 0.00 | 82 | 964.2 |
| 20260506005100 | -1 | 83 | 4.8 | 14.5 | 0.00 | 0.00 | 0.00 | 83 | 964.1 |
| 20260506004600 | -1 | 66 | 3.2 | 14.5 | 0.00 | 0.00 | 0.00 | 82 | 964.1 |
| 20260506004100 | -1 | 349 | 4.8 | 16.1 | 0.00 | 0.00 | 0.00 | 82 | 964.2 |
| 20260506003600 | -1 | 356 | 4.8 | 16.1 | 0.00 | 0.00 | 0.00 | 83 | 964.0 |
| 20260506003100 | -1 | 85 | 6.4 | 17.7 | 0.00 | 0.00 | 0.00 | 82 | 964.2 |
| 20260506002530 | -1 | 68 | 6.4 | 20.9 | 0.00 | 0.00 | 0.00 | 82 | 964.0 |
| 20260506002000 | -1 | 247 | 4.8 | 20.9 | 0.00 | 0.00 | 0.00 | 82 | 964.0 |
| 20260506001429 | -1 | 70 | 4.8 | 20.9 | 0.00 | 0.00 | 0.00 | 83 | 964.0 |
| 20260506000929 | -1 | 118 | 6.4 | 25.7 | 0.00 | 0.00 | 0.00 | 84 | 964.0 |
| 20260506000401 | -1 | 122 | 4.8 | 25.7 | 0.00 | 0.00 | 0.00 | 84 | 964.0 |
| 20260505235859 | -1 | 26 | 3.2 | 14.5 | 0.00 | 0.00 | 0.00 | 84 | 964.0 |
| 20260505235359 | -1 | 353 | 4.8 | 14.5 | 0.00 | 0.00 | 0.00 | 83 | 964.1 |
| 20260505234859 | -1 | 94 | 4.8 | 11.3 | 0.00 | 0.00 | 0.00 | 83 | 964.0 |
| 20260505234329 | -1 | 102 | 3.2 | 14.5 | 0.00 | 0.00 | 0.00 | 83 | 964.0 |
| 20260505233829 | -1 | 121 | 3.2 | 14.5 | 0.00 | 0.00 | 0.00 | 83 | 964.0 |
| 20260505233329 | -1 | 61 | 4.8 | 17.7 | 0.00 | 0.00 | 0.00 | 83 | 964.0 |
| 20260505232759 | -1 | 88 | 4.8 | 17.7 | 0.00 | 0.00 | 0.00 | 84 | 964.1 |
| 20260505232259 | -1 | 123 | 4.8 | 17.7 | 0.00 | 0.00 | 0.00 | 83 | 964.0 |
| 20260505231759 | -1 | 67 | 4.8 | 14.5 | 0.00 | 0.00 | 0.00 | 84 | 964.0 |
| 20260505231259 | -1 | 89 | 4.8 | 16.1 | 0.00 | 0.00 | 0.00 | 84 | 964.0 |
| 20260505230729 | -1 | 16 | 4.8 | 20.9 | 0.00 | 0.00 | 0.00 | 85 | 964.0 |
| 20260505230229 | -1 | 81 | 4.8 | 20.9 | 0.00 | 0.00 | 0.00 | 84 | 964.0 |
| 20260505225729 | -1 | 113 | 4.8 | 20.9 | 0.00 | 0.00 | 0.00 | 84 | 964.0 |
| 20260505225229 | -1 | 17 | 3.2 | 11.3 | 0.00 | 0.00 | 0.00 | 84 | 964.1 |
| 20260505224729 | -1 | 14 | 3.2 | 11.3 | 0.00 | 0.00 | 0.00 | 84 | 964.0 |
| 20260505224229 | -1 | 310 | 3.2 | 9.7 | 0.00 | 0.00 | 0.00 | 84 | 964.0 |
| 20260505223659 | -1 | 15 | 3.2 | 12.9 | 0.00 | 0.00 | 0.00 | 83 | 964.0 |
| 20260505223159 | -1 | 14 | 3.2 | 14.5 | 0.00 | 0.00 | 0.00 | 82 | 964.0 |
| 20260505222659 | -1 | 117 | 3.2 | 14.5 | 0.00 | 0.00 | 0.00 | 82 | 964.0 |
| 20260505222129 | -1 | 49 | 3.2 | 14.5 | 0.00 | 0.00 | 0.00 | 82 | 964.0 |
| 20260505221629 | -1 | 67 | 3.2 | 14.5 | 0.00 | 0.00 | 0.00 | 82 | 964.0 |
| 20260505221129 | -1 | 134 | 3.2 | 14.5 | 0.00 | 0.00 | 0.00 | 82 | 964.0 |
| 20260505220629 | -1 | 95 | 3.2 | 14.5 | 0.00 | 0.00 | 0.00 | 83 | 964.0 |
| 20260505220129 | -1 | 50 | 3.2 | 9.7 | 0.00 | 0.00 | 0.00 | 82 | 964.0 |
| 20260505215629 | -1 | 97 | 3.2 | 12.9 | 0.00 | 0.00 | 0.00 | 82 | 964.0 |
| 20260505215059 | -1 | 3 | 4.8 | 17.7 | 0.00 | 0.00 | 0.00 | 82 | 964.0 |
| 20260505214559 | -1 | 24 | 4.8 | 19.3 | 0.00 | 0.00 | 0.00 | 82 | 964.0 |
| 20260505214059 | -1 | 334 | 4.8 | 19.3 | 0.00 | 0.00 | 0.00 | 82 | 964.0 |
| 20260505213529 | -1 | 82 | 4.8 | 20.9 | 0.00 | 0.00 | 0.00 | 82 | 964.0 |
| 20260505213029 | -1 | 125 | 4.8 | 20.9 | 0.00 | 0.00 | 0.00 | 81 | 964.0 |
| 20260505212529 | -1 | 105 | 3.2 | 17.7 | 0.00 | 0.00 | 0.00 | 82 | 964.0 |
| 20260505212028 | -1 | 40 | 1.6 | 11.3 | 0.00 | 0.00 | 0.00 | 83 | 964.0 |
| 20260505211528 | -1 | 120 | 1.6 | 11.3 | 0.00 | 0.00 | 0.00 | 83 | 963.6 |
| 20260505210958 | -1 | 0 | 1.6 | 11.3 | 0.00 | 0.00 | 0.00 | 83 | 964.0 |
| 20260505210458 | -1 | 99 | 3.2 | 11.3 | 0.00 | 0.00 | 0.00 | 82 | 964.0 |
| 20260505205958 | 0 | 119 | 4.8 | 17.7 | 0.00 | 0.00 | 0.00 | 82 | 964.0 |
| 20260505205458 | 0 | 78 | 4.8 | 17.7 | 0.00 | 0.00 | 0.00 | 83 | 963.5 |
| 20260505204958 | 0 | 102 | 4.8 | 14.5 | 0.00 | 0.00 | 0.00 | 83 | 963.3 |
| 20260505204458 | 0 | 223 | 4.8 | 16.1 | 0.00 | 0.00 | 0.00 | 85 | 963.3 |
| 20260505203958 | 0 | 59 | 4.8 | 16.1 | 0.00 | 0.00 | 0.00 | 85 | 963.4 |
| 20260505203458 | 0 | 99 | 4.8 | 16.1 | 0.00 | 0.00 | 0.00 | 86 | 963.4 |
| 20260505202958 | 0 | 70 | 4.8 | 16.1 | 0.00 | 0.00 | 0.00 | 87 | 963.1 |
| 20260505202458 | 0 | 96 | 4.8 | 14.5 | 0.00 | 0.00 | 0.00 | 88 | 963.1 |
| 20260505201958 | 0 | 37 | 4.8 | 17.7 | 0.00 | 0.00 | 0.00 | 87 | 963.2 |
| 20260505201458 | 0 | 356 | 4.8 | 17.7 | 0.00 | 0.00 | 0.00 | 87 | 963.2 |
| 20260505200958 | 0 | 80 | 4.8 | 19.3 | 0.00 | 0.00 | 0.00 | 87 | 963.3 |
| 20260505200458 | 0 | 42 | 3.2 | 19.3 | 0.00 | 0.00 | 0.00 | 86 | 963.3 |
| 20260505195958 | 0 | 77 | 3.2 | 16.1 | 0.00 | 0.00 | 0.00 | 84 | 963.3 |
| 20260505195458 | 0 | 75 | 3.2 | 12.9 | 0.00 | 0.00 | 0.00 | 83 | 963.3 |
| 20260505194958 | 0 | 63 | 4.8 | 12.9 | 0.00 | 0.00 | 0.00 | 82 | 963.3 |
| 20260505194458 | 0 | 15 | 4.8 | 17.7 | 0.00 | 0.00 | 0.00 | 81 | 963.3 |
| 20260505193958 | 0 | 108 | 4.8 | 20.9 | 0.00 | 0.00 | 0.00 | 81 | 963.3 |
| 20260505193458 | 0 | 107 | 4.8 | 20.9 | 0.00 | 0.00 | 0.00 | 81 | 963.2 |
| 20260505192958 | 0 | 111 | 6.4 | 24.1 | 0.00 | 0.00 | 0.00 | 79 | 963.2 |
| 20260505192458 | 0 | 55 | 6.4 | 24.1 | 0.00 | 0.00 | 0.00 | 78 | 963.2 |
| 20260505191958 | 1 | 334 | 6.4 | 24.1 | 0.00 | 0.00 | 0.00 | 77 | 963.2 |
| 20260505191428 | 1 | 117 | 8.0 | 27.4 | 0.00 | 0.00 | 0.00 | 73 | 963.2 |
| 20260505190928 | 1 | 131 | 8.0 | 27.4 | 0.00 | 0.00 | 0.00 | 71 | 963.1 |
| 20260505190358 | 1 | 53 | 6.4 | 24.1 | 0.00 | 0.00 | 0.00 | 71 | 963.1 |
| 20260505185858 | 1 | 113 | 6.4 | 24.1 | 0.00 | 0.00 | 0.00 | 70 | 963.0 |
| 20260505185358 | 1 | 66 | 8.0 | 27.4 | 0.00 | 0.00 | 0.00 | 69 | 963.0 |
| 20260505184858 | 1 | 124 | 9.7 | 30.6 | 0.00 | 0.00 | 0.00 | 70 | 963.0 |
| 20260505184358 | 1 | 114 | 8.0 | 30.6 | 0.00 | 0.00 | 0.00 | 69 | 963.0 |
| 20260505183828 | 1 | 63 | 6.4 | 20.9 | 0.00 | 0.00 | 0.00 | 68 | 963.0 |
| 20260505183328 | 1 | 114 | 6.4 | 22.5 | 0.00 | 0.00 | 0.00 | 66 | 963.0 |
| 20260505182827 | 1 | 119 | 8.0 | 27.4 | 0.00 | 0.00 | 0.00 | 66 | 963.0 |
| 20260505182327 | 1 | 192 | 9.7 | 27.4 | 0.00 | 0.00 | 0.00 | 65 | 963.0 |
| 20260505181757 | 2 | 161 | 11.3 | 32.2 | 0.00 | 0.00 | 0.00 | 63 | 963.0 |
| 20260505181257 | 2 | 126 | 11.3 | 33.8 | 0.00 | 0.00 | 0.00 | 62 | 963.0 |
| 20260505180757 | 2 | 124 | 12.9 | 33.8 | 0.00 | 0.00 | 0.00 | 62 | 963.0 |
| 20260505180257 | 2 | 184 | 11.3 | 33.8 | 0.00 | 0.00 | 0.00 | 62 | 962.6 |
| 20260505175757 | 2 | 184 | 9.7 | 22.5 | 0.00 | 0.00 | 0.00 | 63 | 963.0 |
| 20260505175257 | 2 | 196 | 11.3 | 22.5 | 0.00 | 0.00 | 0.00 | 65 | 962.6 |
| 20260505174757 | 2 | 182 | 9.7 | 24.1 | 0.00 | 0.00 | 0.00 | 65 | 962.6 |
| 20260505174257 | 2 | 189 | 9.7 | 24.1 | 0.00 | 0.00 | 0.00 | 65 | 962.6 |
| 20260505173757 | 2 | 198 | 11.3 | 30.6 | 0.00 | 0.00 | 0.00 | 64 | 962.6 |
| 20260505173257 | 2 | 189 | 11.3 | 30.6 | 0.00 | 0.00 | 0.00 | 64 | 963.0 |
| 20260505172757 | 2 | 134 | 9.7 | 30.6 | 0.00 | 0.00 | 0.00 | 61 | 962.4 |
| 20260505172257 | 2 | 190 | 9.7 | 25.7 | 0.00 | 0.00 | 0.00 | 58 | 962.5 |
| 20260505171757 | 2 | 189 | 9.7 | 29.0 | 0.00 | 0.00 | 0.00 | 56 | 962.5 |
| 20260505171257 | 3 | 133 | 9.7 | 29.0 | 0.00 | 0.00 | 0.00 | 53 | 962.5 |
| 20260505170757 | 3 | 151 | 9.7 | 29.0 | 0.00 | 0.00 | 0.00 | 52 | 962.5 |
| 20260505170227 | 3 | 164 | 11.3 | 35.4 | 0.00 | 0.00 | 0.00 | 53 | 962.4 |
| 20260505165657 | 3 | 189 | 12.9 | 35.4 | 0.00 | 0.00 | 0.00 | 51 | 962.3 |
| 20260505165157 | 3 | 169 | 12.9 | 35.4 | 0.00 | 0.00 | 0.00 | 51 | 962.4 |
| 20260505164657 | 3 | 157 | 11.3 | 41.8 | 0.00 | 0.00 | 0.00 | 52 | 962.4 |
| 20260505164157 | 3 | 175 | 11.3 | 41.8 | 0.00 | 0.00 | 0.00 | 51 | 962.3 |